Total_Precipitation_Accumulation
0.54 0.77 1.02 0.95 0.88 0.94 0.98 1.04 1.05 0.97 0.76 0.75 0.72 0.59 0.55 0.56 0.58 0.55 0.49 0.42 0.40 0.42 0.40 0.38 0.39 0.42 0.41 0.42 0.44 0.47 0.49 0.58 0.63 0.67 0.79 0.99 1.25 1.35 1.44 1.40 1.22 1.17 1.29 1.54
0.62 0.70 0.62 0.56 0.65 0.84 0.95 1.10 1.08 0.97 0.69 0.63 0.61 0.51 0.45 0.46 0.52 0.48 0.45 0.42 0.35 0.36 0.31 0.28 0.28 0.31 0.33 0.34 0.36 0.40 0.44 0.53 0.59 0.64 0.81 0.96 1.10 1.09 1.26 1.42 1.40 1.31 1.30 1.45
0.59 0.56 0.45 0.50 0.64 0.85 0.93 0.93 0.91 0.89 0.71 0.59 0.55 0.55 0.41 0.38 0.42 0.40 0.36 0.36 0.32 0.30 0.29 0.28 0.26 0.25 0.27 0.29 0.29 0.30 0.34 0.43 0.56 0.69 0.90 1.11 1.29 1.36 1.42 1.35 1.44 1.46 1.38 1.42
0.56 0.46 0.42 0.52 0.61 0.69 0.86 0.60 0.55 0.60 0.75 0.76 0.63 0.75 0.49 0.41 0.45 0.41 0.35 0.30 0.29 0.28 0.28 0.32 0.28 0.31 0.30 0.26 0.24 0.25 0.33 0.45 0.66 0.87 1.09 1.32 1.53 1.56 1.45 1.49 1.52 1.42 1.35 1.31
0.51 0.42 0.42 0.51 0.48 0.46 0.57 0.46 0.43 0.49 0.63 0.61 0.47 0.58 0.50 0.42 0.51 0.47 0.40 0.35 0.30 0.27 0.27 0.29 0.27 0.30 0.30 0.29 0.29 0.35 0.54 0.77 1.02 1.24 1.48 1.75 1.73 1.62 1.52 1.52 1.49 1.44 1.45 1.42
0.43 0.35 0.39 0.39 0.36 0.35 0.38 0.43 0.48 0.53 0.65 0.65 0.42 0.47 0.53 0.41 0.44 0.47 0.45 0.38 0.31 0.26 0.30 0.37 0.42 0.48 0.53 0.56 0.69 0.88 1.15 1.34 1.43 1.55 1.70 1.81 1.76 1.76 1.70 1.52 1.42 1.41 1.47 1.54
0.44 0.36 0.29 0.25 0.33 0.32 0.33 0.54 0.81 0.86 0.86 0.64 0.35 0.51 0.57 0.41 0.33 0.34 0.36 0.31 0.27 0.31 0.39 0.52 0.66 0.78 0.89 1.03 1.17 1.31 1.49 1.64 1.59 1.57 1.62 1.67 1.66 1.63 1.60 1.54 1.44 1.39 1.41 1.46
0.46 0.43 0.27 0.20 0.25 0.30 0.31 0.47 0.86 0.99 0.83 0.60 0.47 0.68 0.64 0.47 0.34 0.26 0.20 0.20 0.31 0.45 0.57 0.69 0.76 0.87 1.02 1.17 1.24 1.25 1.36 1.46 1.44 1.42 1.39 1.37 1.44 1.45 1.40 1.32 1.29 1.33 1.42 1.40
0.32 0.31 0.16 0.14 0.16 0.20 0.29 0.33 0.40 0.62 0.52 0.52 0.60 0.77 0.66 0.42 0.35 0.29 0.25 0.29 0.44 0.65 0.85 1.01 1.11 1.21 1.25 1.29 1.35 1.27 1.27 1.33 1.34 1.28 1.20 1.18 1.24 1.30 1.30 1.23 1.24 1.23 1.23 1.15
0.19 0.21 0.13 0.11 0.14 0.15 0.25 0.34 0.45 0.71 0.83 0.84 0.82 0.84 0.72 0.53 0.46 0.48 0.55 0.66 0.72 0.83 1.10 1.39 1.63 1.79 1.62 1.35 1.27 1.24 1.17 1.17 1.26 1.25 1.18 1.12 1.19 1.19 1.17 1.20 1.17 1.16 1.16 1.06
0.13 0.19 0.14 0.12 0.15 0.18 0.25 0.39 0.51 0.68 0.80 1.05 1.24 1.20 0.91 0.91 0.92 0.98 1.08 1.13 1.13 1.23 1.23 1.39 1.58 1.76 1.67 1.36 1.13 1.16 1.19 1.16 1.15 1.15 1.15 1.14 1.10 0.99 0.98 1.03 1.03 1.01 1.00 1.03
0.09 0.17 0.15 0.12 0.17 0.24 0.36 0.48 0.63 0.92 0.86 0.87 1.15 1.24 0.99 0.97 0.99 1.08 1.26 1.32 1.31 1.23 1.14 1.13 1.18 1.25 1.28 1.13 0.95 0.92 1.07 1.14 1.10 1.07 1.08 1.08 0.98 0.91 0.88 0.86 0.83 0.73 0.69 0.70
0.10 0.22 0.30 0.30 0.39 0.44 0.60 0.66 0.54 0.56 0.66 0.75 1.02 0.98 0.65 0.60 0.75 0.91 1.07 1.15 1.08 1.03 1.12 1.08 1.00 0.94 0.97 0.94 0.86 0.82 0.96 1.11 1.16 1.13 0.98 0.88 0.84 0.81 0.80 0.72 0.68 0.65 0.57 0.55
0.10 0.16 0.26 0.41 0.43 0.46 0.66 0.75 0.59 0.51 0.63 0.62 0.64 0.56 0.39 0.44 0.61 0.68 0.73 0.73 0.74 0.78 0.81 0.76 0.70 0.65 0.66 0.69 0.72 0.78 0.88 0.97 1.10 1.22 1.11 0.96 0.86 0.80 0.76 0.70 0.68 0.64 0.60 0.61
0.08 0.07 0.09 0.13 0.15 0.22 0.40 0.52 0.43 0.32 0.30 0.38 0.37 0.36 0.40 0.48 0.58 0.56 0.50 0.48 0.48 0.47 0.42 0.41 0.41 0.39 0.39 0.39 0.39 0.49 0.63 0.78 0.97 1.19 1.19 1.04 0.96 0.89 0.76 0.70 0.70 0.67 0.71 0.68
0.07 0.06 0.05 0.06 0.08 0.11 0.21 0.25 0.20 0.14 0.17 0.26 0.32 0.38 0.42 0.49 0.56 0.52 0.44 0.37 0.31 0.29 0.29 0.28 0.26 0.24 0.20 0.19 0.21 0.22 0.32 0.50 0.67 0.84 0.93 0.90 0.81 0.71 0.67 0.66 0.63 0.60 0.59 0.55
0.06 0.08 0.10 0.07 0.06 0.09 0.17 0.16 0.17 0.20 0.18 0.19 0.28 0.40 0.47 0.59 0.78 0.69 0.51 0.43 0.30 0.24 0.23 0.23 0.22 0.22 0.20 0.20 0.19 0.20 0.25 0.32 0.42 0.56 0.67 0.67 0.61 0.54 0.51 0.54 0.53 0.49 0.44 0.45
0.06 0.12 0.16 0.14 0.15 0.27 0.27 0.21 0.29 0.38 0.30 0.25 0.32 0.39 0.51 0.84 1.04 0.67 0.44 0.40 0.33 0.24 0.22 0.21 0.21 0.19 0.18 0.17 0.17 0.18 0.21 0.23 0.25 0.32 0.39 0.41 0.40 0.38 0.38 0.39 0.40 0.39 0.38 0.37
0.04 0.12 0.19 0.20 0.23 0.45 0.38 0.20 0.32 0.39 0.34 0.26 0.34 0.39 0.41 0.46 0.42 0.25 0.15 0.16 0.19 0.14 0.12 0.11 0.11 0.10 0.08 0.08 0.09 0.11 0.12 0.13 0.14 0.15 0.18 0.20 0.21 0.25 0.29 0.31 0.35 0.43 0.45 0.42
0.04 0.09 0.17 0.17 0.21 0.31 0.29 0.11 0.18 0.27 0.34 0.15 0.15 0.17 0.12 0.08 0.09 0.12 0.11 0.07 0.06 0.05 0.05 0.05 0.04 0.03 0.02 0.03 0.04 0.05 0.07 0.08 0.09 0.09 0.10 0.12 0.14 0.17 0.21 0.25 0.28 0.29 0.30 0.35
0.06 0.09 0.12 0.12 0.15 0.14 0.08 0.08 0.12 0.28 0.31 0.10 0.06 0.05 0.02 0.02 0.02 0.07 0.11 0.06 0.04 0.03 0.03 0.03 0.02 0.02 0.02 0.02 0.03 0.03 0.05 0.06 0.08 0.10 0.12 0.14 0.14 0.15 0.16 0.14 0.11 0.14 0.19 0.21
0.08 0.10 0.09 0.09 0.13 0.11 0.06 0.09 0.14 0.14 0.08 0.05 0.04 0.03 0.02 0.01 0.01 0.03 0.06 0.04 0.03 0.02 0.02 0.02 0.02 0.03 0.03 0.02 0.03 0.03 0.04 0.06 0.08 0.09 0.10 0.11 0.10 0.09 0.09 0.09 0.08 0.09 0.12 0.14
0.09 0.10 0.10 0.11 0.11 0.11 0.08 0.08 0.06 0.04 0.04 0.03 0.03 0.02 0.02 0.02 0.01 0.01 0.02 0.02 0.01 0.02 0.03 0.03 0.04 0.06 0.06 0.03 0.03 0.04 0.05 0.08 0.08 0.09 0.10 0.10 0.09 0.10 0.08 0.07 0.07 0.08 0.09 0.11
0.07 0.07 0.10 0.11 0.08 0.07 0.07 0.05 0.03 0.02 0.02 0.02 0.03 0.02 0.01 0.01 0.01 0.01 0.01 0.02 0.01 0.01 0.03 0.04 0.07 0.10 0.10 0.05 0.05 0.05 0.06 0.07 0.09 0.09 0.09 0.10 0.10 0.11 0.09 0.08 0.08 0.08 0.07 0.10
0.06 0.07 0.09 0.09 0.06 0.05 0.05 0.04 0.02 0.02 0.01 0.02 0.02 0.01 0.01 0.01 0.01 0.01 0.01 0.01 0.01 0.01 0.02 0.04 0.08 0.09 0.09 0.08 0.07 0.07 0.07 0.06 0.06 0.07 0.09 0.09 0.12 0.12 0.09 0.07 0.07 0.08 0.08 0.11
0.06 0.06 0.08 0.07 0.05 0.05 0.04 0.03 0.02 0.02 0.02 0.02 0.03 0.02 0.01 0.01 0.01 0.01 0.01 0.01 0.01 0.01 0.01 0.02 0.04 0.05 0.07 0.08 0.07 0.07 0.07 0.06 0.05 0.06 0.07 0.08 0.08 0.08 0.08 0.09 0.08 0.08 0.08 0.09